Location: Plainartige
(45.6866°N, 1.7993°E)
Time: 17:32:09
(UTC+00:00)

Envisat - Pass Details

Date: 27 January 2022
Orbit: 764 x 765 km, 98.2° (Epoch: 19 May)

Event Time Altitude Azimuth Distance (km) Brightness Sun altitude
Rises 05:19:11 0° 9° (N) 3,241 6.3 -21.1°
Reaches altitude 10° 05:21:32 10° 5° (N) 2,311 5.5 -20.7°
Maximum altitude 05:26:29 54° 289° (WNW) 929 3.0 -19.8°
Drops below altitude 10° 05:31:25 10° 213° (SSW) 2,297 5.2 -19.0°
Sets 05:33:44 0° 209° (SSW) 3,219 6.0 -18.5°
